Location: Unspecified
(0.0000°N, 0.0000°E)
Time: 21:35:33
(UTC+00:00)

LightSail 2 - Pass Details

Date: 19 January 2020
Orbit: 699 x 723 km, 24.0° (Epoch: 24 February)

Event Time Altitude Azimuth Distance (km) Brightness Sun altitude
Exits shadow 05:19:58 - 243° (WSW) 2,663 7.7 -11.8°
Reaches altitude 10° 05:22:20 10° 223° (SW) 2,184 7.4 -11.3°
Maximum altitude 05:24:23 12° 200° (SSW) 2,027 7.5 -10.8°
Drops below altitude 10° 05:26:28 10° 176° (S) 2,177 8.0 -10.3°
Sets 05:30:26 0° 146° (SE) 3,089 9.4 -9.4°
